Location: Rodanthe
(35.5920°N, 75.4670°W)
Time: 15:39:19
(UTC-05:00)

ISS - All Passes

Search period start: 22 December 2014 00:00
Search period end: 01 January 2015 00:00
Orbit: 404 x 414 km, 51.6° (Epoch: 22 December)

Date Brightness Start Highest point End Pass type
(mag) Time Alt. Az. Time Alt. Az. Time Alt. Az.
22 Dec - 12:11:14 10° SSW 12:14:28 54° SE 12:17:43 10° ENE daylight
22 Dec - 13:49:02 10° WNW 13:51:16 17° NNW 13:53:31 10° NNE daylight
22 Dec - 18:42:18 10° NNW 18:44:50 20° NNE 18:47:22 10° E visible
22 Dec - 20:18:26 10° WNW 20:21:30 37° SW 20:24:32 10° SSE night (unlit)
23 Dec - 11:20:57 10° S 11:23:45 26° SE 11:26:34 10° ENE daylight
23 Dec - 12:57:25 10° W 13:00:16 27° NW 13:03:08 10° NNE daylight
23 Dec - 17:52:03 10° N 17:53:47 13° NNE 17:55:30 10° ENE visible
23 Dec - 19:27:27 10° NW 19:30:44 83° SW 19:33:59 10° SE visible
24 Dec - 10:31:24 10° SSE 10:33:04 13° SE 10:34:43 10° E daylight
24 Dec - 12:06:06 10° WSW 12:09:19 48° NW 12:12:32 10° NE daylight
24 Dec - 18:36:39 10° NW 18:39:50 47° NE 18:43:00 10° ESE visible
24 Dec - 20:14:29 10° W 20:16:05 13° SW 20:17:40 10° SSW night (unlit)
25 Dec - 11:15:05 10° SW 11:18:23 82° SE 11:21:42 10° NE daylight
25 Dec - 12:53:33 10° WNW 12:55:20 14° NNW 12:57:06 10° N daylight
25 Dec - 17:46:00 10° NNW 17:48:50 26° NE 17:51:39 10° E visible
25 Dec - 19:22:33 10° WNW 19:25:20 26° SW 19:28:06 10° S visible
26 Dec - 10:24:25 10° SSW 10:27:30 37° SE 10:30:36 10° ENE daylight
26 Dec - 12:01:35 10° W 12:04:10 21° NNW 12:06:45 10° NNE daylight
26 Dec - 16:55:29 10° NNW 16:57:41 17° NNE 16:59:53 10° ENE daylight
26 Dec - 18:31:16 10° WNW 18:34:29 55° SW 18:37:40 10° SSE visible
27 Dec - 09:34:16 10° S 09:36:39 19° SE 09:39:04 10° E daylight
27 Dec - 11:09:58 10° WSW 11:13:02 35° NW 11:16:06 10° NNE daylight
27 Dec - 16:05:21 10° N 16:06:26 11° NNE 16:07:30 10° NE daylight
27 Dec - 17:40:14 10° NW 17:43:31 69° NE 17:46:45 10° SE visible
28 Dec - 10:18:39 10° SW 10:21:57 68° NW 10:25:14 10° NE daylight
28 Dec - 11:57:54 10° NW 11:59:01 11° NNW 12:00:09 10° N daylight
28 Dec - 16:49:22 10° NNW 16:52:25 34° NE 16:55:26 10° ESE daylight
28 Dec - 18:26:26 10° W 18:28:46 18° SW 18:31:06 10° S visible
29 Dec - 09:27:40 10° SSW 09:30:54 56° SE 09:34:09 10° ENE daylight
29 Dec - 11:05:27 10° WNW 11:07:41 17° NNW 11:09:55 10° NNE daylight
29 Dec - 15:58:38 10° NNW 16:01:12 21° NNE 16:03:45 10° E daylight
29 Dec - 17:34:47 10° WNW 17:37:50 37° SW 17:40:52 10° SSE visible
30 Dec - 08:37:04 10° S 08:39:53 26° SE 08:42:43 10° ENE daylight
30 Dec - 10:13:32 10° W 10:16:23 26° NW 10:19:15 10° NNE daylight
30 Dec - 15:08:06 10° N 15:09:51 14° NNE 15:11:35 10° ENE daylight
30 Dec - 16:43:30 10° NW 16:46:47 82° SW 16:50:02 10° SE daylight
31 Dec - 07:47:15 10° SSE 07:48:55 13° SE 07:50:34 10° E daylight
31 Dec - 09:21:56 10° WSW 09:25:08 48° NW 09:28:21 10° NE daylight
31 Dec - 15:52:24 10° NW 15:55:36 47° NE 15:58:46 10° ESE daylight
31 Dec - 17:30:13 10° W 17:31:49 13° SW 17:33:25 10° SSW visible
